[[{"header":{"parameterUnit":"m.s-1","parameterCategory":1,"la1":30.2992,"la2":30.254,"lo1":-89.0895,"lo2":-89.0443,"dy":0.0025,"dx":0.0025,"nx":19,"ny":19,"refTime":"2026-04-26T03:00:00:Z","depth":0,"parameterNumber":2,"parameterNumberName":"U-component_of_WINDS"},"data":[0,0,0,-0.7109,-0.7108,-0.7056,-0.7056,-0.6988,-0.6987,0,0,0,0,0,0,0,0,0,0,0,-0.7124,-0.7123,-0.7109,-0.7108,-0.7056,-0.7056,-0.6988,-0.6987,0,0,0,0,0,0,0,0,0,0,0,-0.7124,-0.7123,-0.7123,-0.7108,-0.7056,-0.7056,-0.6988,-0.7028,0,0,0,0,0,0,0,0,0,0,-0.7079,-0.7091,-0.7123,-0.7123,-0.7108,-0.7056,-0.7056,-0.703,-0.7026,-0.7011,0,-0.6997,0,-0.6991,-0.6983,-0.6982,0,0,0,-0.7109,-0.7095,-0.7082,-0.7123,-0.7107,-0.7056,-0.708,-0.7028,-0.7023,-0.7005,-0.6996,-0.6994,-0.699,-0.6982,-0.6982,-0.6894,-0.6894,0,0,-0.7112,-0.7114,-0.7085,-0.7078,-0.7086,-0.7081,-0.7078,-0.7025,-0.7015,-0.6996,-0.6992,-0.6989,-0.6982,-0.6981,-0.6895,-0.6894,0,0,0,-0.712,-0.7116,-0.7104,-0.7081,-0.7072,-0.708,-0.7076,-0.7018,-0.7014,-0.6992,-0.6988,-0.6981,-0.698,-0.6895,-0.6894,-0.6874,0,0,0,-0.7121,-0.712,-0.7105,-0.7106,-0.7073,-0.7044,-0.707,-0.7017,-0.7011,-0.6989,-0.6981,-0.698,-0.6896,-0.6895,-0.6875,-0.6863,0,0,0,-0.7127,-0.7121,-0.7113,-0.7106,-0.7084,-0.7045,-0.7038,-0.7016,-0.7009,-0.6982,-0.698,-0.6896,-0.6895,-0.6877,-0.6866,-0.6841,0,0,0,-0.7135,-0.7095,-0.7113,-0.7067,-0.7084,-0.7032,-0.7038,-0.6999,-0.6974,-0.6981,-0.6896,-0.6895,-0.6877,-0.6867,-0.6842,-0.682,-0.681,0,0,-0.7086,-0.7089,-0.7063,-0.7077,-0.7022,-0.704,-0.6983,-0.6958,-0.6954,-0.6914,-0.6912,-0.6875,-0.6866,-0.6841,-0.6759,-0.6752,0,0,0,-0.7048,-0.7029,-0.7014,-0.699,-0.697,-0.6952,-0.6936,-0.6927,-0.6893,-0.6934,-0.6859,-0.6854,-0.6839,-0.6828,-0.6822,-0.6809,-0.689,-0.689,-0.689,-0.6981,-0.6978,-0.6934,-0.6924,-0.6901,-0.6885,-0.6866,-0.6851,-0.6855,-0.6838,-0.6825,-0.6776,-0.6764,-0.6759,-0.6746,-0.6814,-0.6814,-0.6814,-0.6814,-0.6909,-0.6881,-0.6888,-0.6847,-0.6844,-0.681,-0.6794,-0.6798,-0.6766,-0.6785,-0.6772,-0.6792,-0.6751,-0.6739,-0.6812,-0.6812,-0.6812,-0.6813,-0.6813,-0.6865,-0.6851,-0.6841,-0.6806,-0.6779,-0.6772,-0.6741,-0.674,-0.6739,-0.6726,-0.6713,-0.6713,-0.6713,-0.672,-0.672,-0.672,-0.6719,-0.6719,-0.6719,-0.6823,-0.6812,-0.6785,-0.6761,-0.6746,-0.6726,-0.671,-0.6695,-0.6678,-0.668,-0.668,-0.6685,-0.6748,-0.6763,-0.6717,-0.6717,-0.6717,-0.6718,-0.6718,-0.675,-0.6766,-0.6726,-0.671,-0.6682,-0.6656,-0.6656,-0.6625,-0.6613,-0.6598,-0.6607,-0.6653,-0.6656,-0.6661,-0.6674,-0.6607,-0.6607,-0.6607,-0.6607,-0.6712,-0.6714,-0.6673,-0.6648,-0.6624,-0.6619,-0.6574,-0.6562,-0.6552,-0.6544,-0.6554,-0.6571,-0.6576,-0.6577,-0.6583,-0.6595,-0.651,-0.651,-0.651,-0.6668,-0.6667,-0.6629,-0.6618,-0.6597,-0.6578,-0.6536,-0.6508,-0.65,-0.6506,-0.6538,-0.6542,-0.657,-0.6579,-0.6585,-0.6595,-0.6617,0,0]},{"header":{"parameterUnit":"m.s-1","parameterCategory":1,"la1":30.2992,"la2":30.254,"lo1":-89.0895,"lo2":-89.0443,"dy":0.0025,"dx":0.0025,"nx":19,"ny":19,"refTime":"2026-04-26T03:00:00:Z","depth":0,"parameterNumber":3,"parameterNumberName":"V-component_of_WINDS"},"data":[0,0,0,3.6225,3.6225,3.6255,3.6255,3.6307,3.6308,0,0,0,0,0,0,0,0,0,0,0,3.6225,3.6226,3.6225,3.6226,3.6255,3.6255,3.6307,3.6308,0,0,0,0,0,0,0,0,0,0,0,3.6225,3.6225,3.6226,3.6226,3.6255,3.6255,3.6307,3.628,0,0,0,0,0,0,0,0,0,0,3.6248,3.6258,3.6225,3.6226,3.6226,3.6255,3.6255,3.6278,3.6281,3.63,0,3.632,0,3.6315,3.6312,3.6313,0,0,0,3.6219,3.6255,3.6255,3.6226,3.6226,3.6255,3.624,3.628,3.6283,3.6305,3.632,3.6322,3.6316,3.6313,3.6313,3.6446,3.6447,0,0,3.6217,3.6235,3.6252,3.6258,3.6255,3.6239,3.6241,3.6282,3.63,3.6321,3.6323,3.6317,3.6313,3.6314,3.6445,3.6446,0,0,0,3.6217,3.6234,3.6233,3.6256,3.626,3.624,3.6242,3.6298,3.6296,3.6323,3.6317,3.6314,3.6314,3.6444,3.6446,3.651,0,0,0,3.6216,3.6234,3.6232,3.6244,3.626,3.628,3.6258,3.6293,3.6297,3.6317,3.6314,3.6315,3.6443,3.6445,3.6506,3.6538,0,0,0,3.622,3.6235,3.6242,3.6245,3.6258,3.6279,3.6279,3.6294,3.6294,3.6313,3.6315,3.6442,3.6445,3.6503,3.6532,3.6578,0,0,0,3.623,3.6299,3.6244,3.6319,3.6258,3.6319,3.6278,3.6322,3.6346,3.6314,3.6443,3.6445,3.6501,3.6528,3.6574,3.662,3.6641,0,0,3.6328,3.6312,3.6355,3.6305,3.6381,3.6313,3.6397,3.6401,3.6386,3.6427,3.643,3.6507,3.6531,3.6577,3.6752,3.6769,0,0,0,3.6392,3.6423,3.6439,3.6462,3.6467,3.6474,3.6464,3.6465,3.6499,3.6411,3.6536,3.655,3.6576,3.6597,3.6611,3.6632,3.6456,3.6456,3.6455,3.6557,3.6534,3.6603,3.6584,3.6607,3.6595,3.6611,3.6611,3.6581,3.6611,3.6623,3.6732,3.6757,3.6768,3.679,3.6645,3.6646,3.6646,3.6646,3.6699,3.6739,3.6697,3.6749,3.6724,3.6767,3.6758,3.6735,3.6771,3.6721,3.6743,3.6691,3.6787,3.6805,3.6651,3.665,3.6649,3.6649,3.6649,3.6805,3.682,3.6821,3.6852,3.6878,3.6855,3.6892,3.6867,3.6845,3.6866,3.6876,3.6875,3.6871,3.6873,3.6873,3.6873,3.6874,3.6874,3.6874,3.6915,3.6913,3.6947,3.6958,3.6969,3.6981,3.6969,3.698,3.6985,3.6965,3.6964,3.6931,3.6801,3.6769,3.688,3.6879,3.6878,3.6878,3.6877,3.7068,3.7029,3.7082,3.7093,3.7103,3.7131,3.7099,3.7122,3.7127,3.7146,3.7108,3.7015,3.6997,3.6986,3.6959,3.7113,3.7113,3.7113,3.7113,3.7158,3.7146,3.7194,3.7213,3.723,3.7206,3.7266,3.7257,3.7241,3.7243,3.7217,3.7179,3.7169,3.7157,3.7141,3.7116,3.7307,3.7307,3.7307,3.725,3.7239,3.7295,3.7279,3.7284,3.729,3.7345,3.7369,3.7343,3.7314,3.7244,3.7235,3.7174,3.7155,3.7125,3.7102,3.7055,0,0]}]]